Orangeburg, SC

12:46 PM EDT on August 23, 2017 (GMT -0400)
Orangeburg Municipal

Weather History for KOGB - May, 2013

Change the Weather History Date:

Monday, May 20, 2013

  Actual Average Record
Temperature  
Mean Temperature 77 °F 73 °F  
Max Temperature 85 °F 85 °F 99 °F (1971)
Min Temperature 68 °F 61 °F 45 °F (2002)
Degree Days  
Heating Degree Days 0 0  
Month to date heating degree days 24 10  
Since 1 July heating degree days 2180 2327  
Cooling Degree Days 12 8  
Month to date cooling degree days 87 115  
Year to date cooling degree days 177 200  
Growing Degree Days 26 (Base 50)    
Moisture  
Dew Point 69 °F    
Average Humidity 87    
Maximum Humidity 100    
Minimum Humidity 63    
Precipitation  
Precipitation 0.00 in 0.11 in 1.65 in (1969)
Month to date precipitation 2.58 1.74  
Year to date precipitation 17.38 16.14  
Sea Level Pressure  
Sea Level Pressure 30.08 in    
Wind  
Wind Speed 4 mph (SSW)    
Max Wind Speed 13 mph    
Max Gust Speed 18 mph    
Visibility 8 miles    
Events      
T = Trace of Precipitation, MM = Missing Value Source: NWS Daily Summary

Daily Weather History Graph

Daily Weather History Graph

Search for Another Location

Airport or City:

Trip Planner

Search our weather history database for the weather conditions in past years. The results will help you decide how hot, cold, wet, or windy it might be!

Date:

Astronomy

May. 20, 2013 Rise Set
Actual Time 6:19 AM EDT 8:20 PM EDT
Civil Twilight 5:51 AM EDT 8:48 PM EDT
Nautical Twilight 5:18 AM EDT 9:22 PM EDT
Astronomical Twilight 4:42 AM EDT 9:58 PM EDT
Moon 3:39 PM EDT (5/20) 2:59 AM EDT (5/20)
Length of Visible Light 14h 56m
Length of Day
14h 00m
Waxing Gibbous, 75% of the Moon is Illuminated
May 20
Waxing Gibbous
May 25
Full
May 31
Last Quarter
Jun 8
New
Jun 16
First Quarter

Hourly Weather History & Observations

Time (EDT) Temp. Heat Index Dew Point Humidity Pressure Visibility Wind Dir Wind Speed Gust Speed Precip Events Conditions
12:34 AM 69.8 °F - 68.0 °F 94% 30.09 in 4.0 mi ESE 3.5 mph - N/A   Overcast
12:53 AM 69.1 °F - 68.0 °F 96% 30.08 in 1.8 mi Calm Calm - N/A   Overcast
1:00 AM 69.8 °F - 68.0 °F 94% 30.09 in 0.8 mi SE 3.5 mph - N/A   Overcast
1:33 AM 69.8 °F - 69.8 °F 100% 30.09 in 1.5 mi Calm Calm - N/A   Overcast
1:35 AM 69.8 °F - 69.8 °F 100% 30.08 in 2.0 mi Calm Calm - N/A   Overcast
1:53 AM 70.0 °F - 69.1 °F 97% 30.08 in 1.8 mi Calm Calm - N/A   Overcast
2:02 AM 69.8 °F - 69.8 °F 100% 30.08 in 3.0 mi South 3.5 mph - N/A   Overcast
2:26 AM 69.8 °F - 69.8 °F 100% 30.07 in 7.0 mi Calm Calm - N/A   Overcast
2:53 AM 70.0 °F - 69.1 °F 97% 30.06 in 8.0 mi South 3.5 mph - N/A   Overcast
3:05 AM 69.8 °F - 69.8 °F 100% 30.07 in 7.0 mi Calm Calm - N/A   Overcast
3:53 AM 70.0 °F - 68.0 °F 93% 30.06 in 4.0 mi Calm Calm - N/A   Overcast
4:02 AM 69.8 °F - 68.0 °F 94% 30.06 in 4.0 mi Calm Calm - N/A   Overcast
4:31 AM 69.8 °F - 68.0 °F 94% 30.06 in 5.0 mi Calm Calm - N/A   Scattered Clouds
4:42 AM 69.8 °F - 68.0 °F 94% 30.06 in 4.0 mi Calm Calm - N/A   Mostly Cloudy
4:53 AM 70.0 °F - 68.0 °F 93% 30.06 in 5.0 mi Calm Calm - N/A   Mostly Cloudy
5:53 AM 70.0 °F - 69.1 °F 97% 30.07 in 5.0 mi Calm Calm - N/A   Overcast
7:39 AM 71.6 °F - 69.8 °F 94% 30.10 in 6.0 mi Calm Calm - N/A   Overcast
7:53 AM 72.0 °F - 70.0 °F 93% 30.10 in 7.0 mi Calm Calm - N/A   Overcast
8:09 AM 71.6 °F - 69.8 °F 94% 30.11 in 7.0 mi SSW 4.6 mph - N/A   Overcast
8:27 AM 71.6 °F - 69.8 °F 94% 30.11 in 8.0 mi South 3.5 mph - N/A   Overcast
8:53 AM 73.0 °F - 70.0 °F 90% 30.11 in 9.0 mi SSW 4.6 mph - N/A   Overcast
9:03 AM 73.4 °F - 69.8 °F 88% 30.12 in 9.0 mi SSW 6.9 mph - N/A   Overcast
9:13 AM 73.4 °F - 71.6 °F 94% 30.12 in 9.0 mi SSW 3.5 mph - N/A   Overcast
9:21 AM 73.4 °F - 71.6 °F 94% 30.12 in 9.0 mi South 3.5 mph - N/A   Overcast
9:35 AM 73.4 °F - 69.8 °F 88% 30.11 in 9.0 mi South 5.8 mph - N/A   Overcast
9:50 AM 73.4 °F - 69.8 °F 88% 30.12 in 10.0 mi SSW 5.8 mph - N/A   Mostly Cloudy
9:53 AM 73.9 °F - 70.0 °F 87% 30.12 in 10.0 mi SW 5.8 mph - N/A   Mostly Cloudy
10:27 AM 75.2 °F - 69.8 °F 83% 30.11 in 10.0 mi SW 6.9 mph - N/A   Scattered Clouds
10:53 AM 77.0 °F - 71.1 °F 82% 30.10 in 10.0 mi SW 6.9 mph - N/A   Partly Cloudy
11:34 AM 78.8 °F - 69.8 °F 74% 30.10 in 10.0 mi WSW 6.9 mph - N/A   Mostly Cloudy
11:41 AM 78.8 °F - 69.8 °F 74% 30.10 in 10.0 mi SW 9.2 mph - N/A   Mostly Cloudy
11:53 AM 80.1 °F 82.9 °F 69.1 °F 69% 30.10 in 10.0 mi SW 9.2 mph - N/A   Mostly Cloudy
12:53 PM 81.0 °F 83.8 °F 68.0 °F 65% 30.09 in 10.0 mi Variable 5.8 mph - N/A   Clear
1:53 PM 82.0 °F 84.9 °F 68.0 °F 62% 30.07 in 10.0 mi West 10.4 mph - N/A   Mostly Cloudy
2:53 PM 82.9 °F 85.8 °F 68.0 °F 60% 30.06 in 10.0 mi Variable 6.9 mph - N/A   Scattered Clouds
3:53 PM 82.0 °F 84.9 °F 68.0 °F 62% 30.04 in 10.0 mi NW 5.8 mph - N/A   Mostly Cloudy
4:53 PM 82.0 °F 84.9 °F 68.0 °F 62% 30.02 in 10.0 mi SW 3.5 mph - N/A   Scattered Clouds
5:53 PM 77.0 °F - 69.1 °F 76% 30.03 in 10.0 mi ESE 6.9 mph 16.1 mph N/A   Overcast
6:53 PM 75.0 °F - 66.0 °F 73% 30.05 in 10.0 mi ESE 6.9 mph - N/A   Mostly Cloudy
7:37 PM 73.4 °F - 66.2 °F 78% 30.05 in 10.0 mi South 5.8 mph - N/A   Mostly Cloudy
7:48 PM 71.6 °F - 66.2 °F 83% 30.05 in 10.0 mi South 5.8 mph - N/A   Scattered Clouds
7:53 PM 72.0 °F - 66.0 °F 81% 30.04 in 10.0 mi SSE 5.8 mph - N/A   Scattered Clouds
8:53 PM 70.0 °F - 66.0 °F 87% 30.05 in 10.0 mi SSW 5.8 mph - N/A   Clear
10:53 PM 69.1 °F - 64.9 °F 87% 30.06 in 10.0 mi ESE 3.5 mph - N/A   Clear
11:53 PM 68.0 °F - 64.9 °F 90% 30.06 in 10.0 mi SE 4.6 mph - N/A   Overcast